Location: Gammelsbach
(49.5261°N, 8.9630°E)
Time: 03:57:54
(UTC+00:00)

Cosmos 2034 Rocket - Pass Details

Date: 17 June 2025
Orbit: 957 x 999 km, 82.9° (Epoch: 12 July)

Event Time Altitude Azimuth Distance (km) Brightness Sun altitude
Rises 22:59:09 0° 348° (NNW) 3,671 8.8 -16.8°
Reaches altitude 10° 23:01:40 10° 346° (NNW) 2,726 7.6 -16.9°
Maximum altitude 23:07:51 67° 266° (W) 1,056 4.1 -17.0°
Enters shadow 23:11:34 25° 190° (S) 1,850 4.9 -17.0°
